SAOCOM 1B

Last updated on Mon Jun 22 2026 00:02:14 GMT+0000 (Coordinated Universal Time)

1 46265U 20059A 26172.48788333 .00000696 00000+0 93980-4 0 9994 2 46265 97.8892 358.2684 0001631 85.2510 274.8890 14.82150660314128
UTC large
Height (km)
Speed (km/s)
/
Latitude / Longitude
Inclination (degrees)
Orbital Period (minutes)
Azimuth
Elevation
Range (km)
Doppler Factor

Next 0 passes for location: London (51.5072 / 0.1276)

No passes found over London.
SAOCOM 1B